Location: St. Louis
(38.6270°N, 90.1994°W)
Time: 20:00:20
(UTC-06:00)

Vanguard 3 - Pass Details

Date: 05 December 2021
Orbit: 508 x 3260 km, 33.3° (Epoch: 19 January)

Event Time Altitude Azimuth Distance (km) Brightness Sun altitude
Exits shadow 05:30:39 14° 260° (W) 5,808 10.9 -17.7°
Maximum altitude 05:48:37 74° 181° (S) 2,937 9.9 -14.3°
Drops below altitude 10° 06:02:27 10° 100° (E) 4,528 12.4 -11.8°
Sets 06:05:21 0° 98° (E) 5,223 13.2 -11.2°
